Time,TemperatureF,DewpointF,PressureIn,WindDirection,WindDirectionDegrees,WindSpeedMPH,WindSpeedGustMPH,Humidity,HourlyPrecipIn,Conditions,Clouds,dailyrainin,SolarRadiationWatts/m^2,SoftwareType,DateUTC
2013-03-14 00:00:00,32.9,24.8,29.85,West,261,1.0,15.0,72,0.00,,,0.00,0.0,meteohub,2013-03-14 04:00:00,
2013-03-14 00:03:00,32.9,24.8,29.85,West,259,4.0,15.0,72,0.00,,,0.00,0.0,meteohub,2013-03-14 04:03:00,
2013-03-14 00:05:00,32.9,24.8,29.85,WNW,298,1.0,12.0,72,0.00,,,0.00,0.0,meteohub,2013-03-14 04:05:00,
2013-03-14 00:10:00,33.1,25.0,29.86,WNW,301,1.0,12.0,72,0.00,,,0.00,0.0,meteohub,2013-03-14 04:10:00,
2013-03-14 00:15:00,33.1,25.0,29.86,NW,323,4.0,9.0,72,0.00,,,0.00,0.0,meteohub,2013-03-14 04:15:00,
2013-03-14 00:21:00,33.1,24.6,29.86,WNW,300,2.0,9.0,71,0.00,,,0.00,0.0,meteohub,2013-03-14 04:21:00,
2013-03-14 00:26:00,33.1,24.6,29.85,WNW,288,11.0,11.0,71,0.00,,,0.00,0.0,meteohub,2013-03-14 04:26:00,
2013-03-14 00:31:00,32.9,24.3,29.85,WNW,301,4.0,16.0,70,0.00,,,0.00,0.0,meteohub,2013-03-14 04:31:00,
2013-03-14 00:36:00,32.9,24.6,29.85,WNW,294,4.0,16.0,71,0.00,,,0.00,0.0,meteohub,2013-03-14 04:36:00,
2013-03-14 00:41:00,32.9,24.3,29.85,NW,315,3.0,16.0,70,0.00,,,0.00,0.0,meteohub,2013-03-14 04:41:00,
2013-03-14 00:47:00,32.7,23.7,29.85,WNW,288,0.0,14.0,69,0.00,,,0.00,0.0,meteohub,2013-03-14 04:47:00,
2013-03-14 00:52:00,32.5,23.5,29.85,WNW,286,1.0,14.0,69,0.00,,,0.00,0.0,meteohub,2013-03-14 04:52:00,
2013-03-14 00:57:00,32.5,23.5,29.85,NW,320,2.0,14.0,69,0.00,,,0.00,0.0,meteohub,2013-03-14 04:57:00,
2013-03-14 01:02:00,32.5,23.5,29.85,WNW,302,3.0,14.0,69,0.00,,,0.00,0.0,meteohub,2013-03-14 05:02:00,
2013-03-14 01:07:00,32.4,23.4,29.85,NW,322,0.0,8.0,69,0.00,,,0.00,0.0,meteohub,2013-03-14 05:07:00,
2013-03-14 01:12:00,32.4,23.4,29.85,West,275,0.0,8.0,69,0.00,,,0.00,0.0,meteohub,2013-03-14 05:12:00,
2013-03-14 01:17:00,32.2,23.5,29.85,West,271,4.0,8.0,70,0.00,,,0.00,0.0,meteohub,2013-03-14 05:17:00,
2013-03-14 01:23:00,32.2,23.2,29.84,NW,310,1.0,9.0,69,0.00,,,0.00,0.0,meteohub,2013-03-14 05:23:00,
2013-03-14 01:28:00,32.0,23.4,29.85,WNW,298,0.0,10.0,70,0.00,,,0.00,0.0,meteohub,2013-03-14 05:28:00,
2013-03-14 01:33:00,31.8,23.2,29.84,WSW,246,0.0,10.0,70,0.00,,,0.00,0.0,meteohub,2013-03-14 05:33:00,
2013-03-14 01:38:00,31.8,23.2,29.84,WNW,287,2.0,10.0,70,0.00,,,0.00,0.0,meteohub,2013-03-14 05:38:00,
2013-03-14 01:44:00,31.6,22.6,29.84,NW,312,5.0,7.0,69,0.00,,,0.00,0.0,meteohub,2013-03-14 05:44:00,
2013-03-14 01:49:00,31.6,22.6,29.84,NNE,17,4.0,7.0,69,0.00,,,0.00,0.0,meteohub,2013-03-14 05:49:00,
2013-03-14 01:54:00,31.5,21.7,29.84,WNW,286,1.0,11.0,67,0.00,,,0.00,0.0,meteohub,2013-03-14 05:54:00,
2013-03-14 01:59:00,31.5,21.4,29.85,WNW,296,0.0,11.0,66,0.00,,,0.00,0.0,meteohub,2013-03-14 05:59:00,
2013-03-14 02:05:00,31.5,21.0,29.84,NNW,332,5.0,11.0,65,0.00,,,0.00,0.0,meteohub,2013-03-14 06:05:00,
2013-03-14 02:10:00,31.5,20.7,29.85,NW,307,2.0,11.0,64,0.00,,,0.00,0.0,meteohub,2013-03-14 06:10:00,
2013-03-14 02:15:00,31.5,20.3,29.85,NW,314,2.0,11.0,63,0.00,,,0.00,0.0,meteohub,2013-03-14 06:15:00,
2013-03-14 02:20:00,31.5,19.9,29.85,West,280,5.0,13.0,62,0.00,,,0.00,0.0,meteohub,2013-03-14 06:20:00,
2013-03-14 02:25:00,31.3,19.4,29.85,WNW,293,5.0,13.0,61,0.00,,,0.00,0.0,meteohub,2013-03-14 06:25:00,
2013-03-14 02:31:00,31.3,19.8,29.85,NW,306,4.0,13.0,62,0.00,,,0.00,0.0,meteohub,2013-03-14 06:31:00,
2013-03-14 02:36:00,31.3,19.0,29.84,North,9,2.0,13.0,60,0.00,,,0.00,0.0,meteohub,2013-03-14 06:36:00,
2013-03-14 02:41:00,31.3,19.0,29.85,NW,315,3.0,13.0,60,0.00,,,0.00,0.0,meteohub,2013-03-14 06:41:00,
2013-03-14 02:47:00,31.1,18.9,29.84,WNW,300,4.0,16.0,60,0.00,,,0.00,0.0,meteohub,2013-03-14 06:47:00,
2013-03-14 02:52:00,30.9,18.7,29.84,WNW,302,2.0,16.0,60,0.00,,,0.00,0.0,meteohub,2013-03-14 06:52:00,
2013-03-14 02:57:00,30.9,18.7,29.84,West,280,3.0,16.0,60,0.00,,,0.00,0.0,meteohub,2013-03-14 06:57:00,
2013-03-14 03:03:00,30.7,18.5,29.84,NW,317,2.0,12.0,60,0.00,,,0.00,0.0,meteohub,2013-03-14 07:03:00,
2013-03-14 03:08:00,30.7,18.5,29.84,West,263,3.0,12.0,60,0.00,,,0.00,0.0,meteohub,2013-03-14 07:08:00,
2013-03-14 03:13:00,30.6,18.3,29.84,WNW,300,1.0,12.0,60,0.00,,,0.00,0.0,meteohub,2013-03-14 07:13:00,
2013-03-14 03:18:00,30.4,18.1,29.84,WNW,302,0.0,11.0,60,0.00,,,0.00,0.0,meteohub,2013-03-14 07:18:00,
2013-03-14 03:24:00,30.4,18.1,29.84,WNW,297,3.0,13.0,60,0.00,,,0.00,0.0,meteohub,2013-03-14 07:24:00,
2013-03-14 03:29:00,30.2,18.3,29.84,WSW,237,2.0,13.0,61,0.00,,,0.00,0.0,meteohub,2013-03-14 07:29:00,
2013-03-14 03:35:00,30.0,18.5,29.83,WNW,292,4.0,13.0,62,0.00,,,0.00,0.0,meteohub,2013-03-14 07:35:00,
2013-03-14 03:40:00,29.8,18.5,29.83,NW,326,3.0,13.0,62,0.00,,,0.00,0.0,meteohub,2013-03-14 07:40:00,
2013-03-14 03:45:00,29.8,18.9,29.83,WNW,301,1.0,17.0,63,0.00,,,0.00,0.0,meteohub,2013-03-14 07:45:00,
2013-03-14 03:51:00,29.7,19.0,29.83,West,277,0.0,17.0,64,0.00,,,0.00,0.0,meteohub,2013-03-14 07:51:00,
2013-03-14 03:56:00,29.7,19.4,29.84,WSW,238,0.0,13.0,65,0.00,,,0.00,0.0,meteohub,2013-03-14 07:56:00,
2013-03-14 04:01:00,29.5,19.2,29.84,WNW,283,1.0,12.0,65,0.00,,,0.00,0.0,meteohub,2013-03-14 08:01:00,
2013-03-14 04:07:00,29.5,19.2,29.83,WNW,290,0.0,12.0,65,0.00,,,0.00,0.0,meteohub,2013-03-14 08:07:00,
2013-03-14 04:12:00,29.3,19.0,29.83,NW,325,0.0,12.0,65,0.00,,,0.00,0.0,meteohub,2013-03-14 08:12:00,
2013-03-14 04:17:00,29.1,18.9,29.83,WNW,302,6.0,13.0,65,0.00,,,0.00,0.0,meteohub,2013-03-14 08:17:00,
2013-03-14 04:22:00,29.1,18.9,29.83,West,266,0.0,13.0,65,0.00,,,0.00,0.0,meteohub,2013-03-14 08:22:00,
2013-03-14 04:27:00,28.9,18.7,29.83,WNW,286,2.0,13.0,65,0.00,,,0.00,0.0,meteohub,2013-03-14 08:27:00,
2013-03-14 04:32:00,28.9,18.3,29.83,WNW,284,0.0,13.0,64,0.00,,,0.00,0.0,meteohub,2013-03-14 08:32:00,
2013-03-14 04:37:00,28.9,18.3,29.83,NW,311,1.0,13.0,64,0.00,,,0.00,0.0,meteohub,2013-03-14 08:37:00,
2013-03-14 04:42:00,28.9,18.0,29.83,NW,317,4.0,13.0,63,0.00,,,0.00,0.0,meteohub,2013-03-14 08:42:00,
2013-03-14 04:48:00,28.9,18.0,29.83,North,355,2.0,13.0,63,0.00,,,0.00,0.0,meteohub,2013-03-14 08:48:00,
2013-03-14 04:53:00,28.8,17.4,29.83,West,264,6.0,13.0,62,0.00,,,0.00,0.0,meteohub,2013-03-14 08:53:00,
2013-03-14 04:58:00,28.8,17.1,29.83,WNW,302,6.0,14.0,61,0.00,,,0.00,0.0,meteohub,2013-03-14 08:58:00,
2013-03-14 05:03:00,28.6,16.9,29.83,WNW,298,2.0,14.0,61,0.00,,,0.00,0.0,meteohub,2013-03-14 09:03:00,
2013-03-14 05:08:00,28.6,16.9,29.83,ESE,102,2.0,14.0,61,0.00,,,0.00,0.0,meteohub,2013-03-14 09:08:00,
2013-03-14 05:14:00,28.6,16.9,29.83,West,275,6.0,14.0,61,0.00,,,0.00,0.0,meteohub,2013-03-14 09:14:00,
2013-03-14 05:19:00,28.4,16.7,29.83,West,261,6.0,12.0,61,0.00,,,0.00,0.0,meteohub,2013-03-14 09:19:00,
2013-03-14 05:24:00,28.4,16.7,29.83,WNW,288,3.0,12.0,61,0.00,,,0.00,0.0,meteohub,2013-03-14 09:24:00,
2013-03-14 05:29:00,28.4,16.7,29.83,WNW,299,2.0,12.0,61,0.00,,,0.00,0.0,meteohub,2013-03-14 09:29:00,
2013-03-14 05:35:00,28.2,16.9,29.84,SW,221,6.0,12.0,62,0.00,,,0.00,0.0,meteohub,2013-03-14 09:35:00,
2013-03-14 05:40:00,28.2,16.9,29.84,West,277,6.0,11.0,62,0.00,,,0.00,0.0,meteohub,2013-03-14 09:40:00,
2013-03-14 05:45:00,28.2,16.5,29.83,NW,325,3.0,11.0,61,0.00,,,0.00,0.0,meteohub,2013-03-14 09:45:00,
2013-03-14 05:51:00,28.2,16.5,29.84,West,275,13.0,13.0,61,0.00,,,0.00,0.0,meteohub,2013-03-14 09:51:00,
2013-03-14 05:56:00,28.2,16.5,29.84,WNW,294,6.0,14.0,61,0.00,,,0.00,0.0,meteohub,2013-03-14 09:56:00,
2013-03-14 06:02:00,28.2,16.5,29.85,WNW,283,5.0,20.0,61,0.00,,,0.00,0.0,meteohub,2013-03-14 10:02:00,
2013-03-14 06:07:00,28.0,16.7,29.85,NW,314,10.0,20.0,62,0.00,,,0.00,0.0,meteohub,2013-03-14 10:07:00,
2013-03-14 06:12:00,28.0,17.4,29.85,NNW,327,6.0,20.0,64,0.00,,,0.00,0.0,meteohub,2013-03-14 10:12:00,
2013-03-14 06:17:00,27.9,17.6,29.86,WNW,284,6.0,20.0,65,0.00,,,0.00,0.0,meteohub,2013-03-14 10:17:00,
2013-03-14 06:22:00,27.7,17.4,29.86,NNW,331,5.0,20.0,65,0.00,,,0.00,0.0,meteohub,2013-03-14 10:22:00,
2013-03-14 06:27:00,27.3,17.1,29.86,West,259,17.0,20.0,65,0.00,,,0.00,0.0,meteohub,2013-03-14 10:27:00,
2013-03-14 06:32:00,27.1,16.9,29.86,NE,48,2.0,19.0,65,0.00,,,0.00,0.0,meteohub,2013-03-14 10:32:00,
2013-03-14 06:37:00,27.0,16.3,29.86,West,280,7.0,19.0,64,0.00,,,0.00,0.0,meteohub,2013-03-14 10:37:00,
2013-03-14 06:43:00,27.0,16.3,29.85,WNW,302,4.0,19.0,64,0.00,,,0.00,0.0,meteohub,2013-03-14 10:43:00,
2013-03-14 06:48:00,27.0,16.7,29.85,West,265,2.0,20.0,65,0.00,,,0.00,0.0,meteohub,2013-03-14 10:48:00,
2013-03-14 06:54:00,27.0,16.7,29.85,WSW,248,0.0,20.0,65,0.00,,,0.00,0.0,meteohub,2013-03-14 10:54:00,
2013-03-14 06:59:00,26.8,16.9,29.86,West,269,0.0,12.0,66,0.00,,,0.00,0.0,meteohub,2013-03-14 10:59:00,
2013-03-14 07:04:00,26.8,16.9,29.86,West,276,6.0,12.0,66,0.00,,,0.00,0.0,meteohub,2013-03-14 11:04:00,
2013-03-14 07:09:00,26.8,16.5,29.86,West,265,10.0,14.0,65,0.00,,,0.00,0.0,meteohub,2013-03-14 11:09:00,
2013-03-14 07:15:00,26.6,16.0,29.86,West,278,4.0,14.0,64,0.00,,,0.00,0.0,meteohub,2013-03-14 11:15:00,
2013-03-14 07:20:00,26.4,16.0,29.86,North,355,5.0,18.0,64,0.00,,,0.00,0.0,meteohub,2013-03-14 11:20:00,
2013-03-14 07:25:00,26.4,16.3,29.86,WNW,300,6.0,18.0,65,0.00,,,0.00,0.0,meteohub,2013-03-14 11:25:00,
2013-03-14 07:30:00,26.4,16.3,29.86,WNW,296,14.0,18.0,65,0.00,,,0.00,7.0,meteohub,2013-03-14 11:30:00,
2013-03-14 07:36:00,26.4,16.3,29.86,WNW,290,7.0,19.0,65,0.00,,,0.00,9.0,meteohub,2013-03-14 11:36:00,
2013-03-14 07:41:00,26.2,15.8,29.86,WNW,291,8.0,21.0,64,0.00,,,0.00,11.0,meteohub,2013-03-14 11:41:00,
2013-03-14 07:46:00,26.1,16.0,29.87,WNW,290,5.0,21.0,65,0.00,,,0.00,14.0,meteohub,2013-03-14 11:46:00,
2013-03-14 07:52:00,26.1,16.0,29.87,NW,318,6.0,21.0,65,0.00,,,0.00,16.0,meteohub,2013-03-14 11:52:00,
2013-03-14 07:57:00,26.1,15.6,29.88,West,275,8.0,25.0,64,0.00,,,0.00,18.0,meteohub,2013-03-14 11:57:00,
2013-03-14 08:02:00,25.9,15.4,29.88,WNW,297,2.0,18.0,64,0.00,,,0.00,23.0,meteohub,2013-03-14 12:02:00,
2013-03-14 08:07:00,25.9,15.1,29.88,NW,305,2.0,18.0,63,0.00,,,0.00,28.0,meteohub,2013-03-14 12:07:00,
2013-03-14 08:12:00,25.7,14.9,29.88,WNW,288,10.0,18.0,63,0.00,,,0.00,35.0,meteohub,2013-03-14 12:12:00,
2013-03-14 08:17:00,25.5,14.4,29.88,West,273,2.0,19.0,62,0.00,,,0.00,35.0,meteohub,2013-03-14 12:17:00,
2013-03-14 08:22:00,25.5,14.7,29.88,West,263,11.0,19.0,63,0.00,,,0.00,39.0,meteohub,2013-03-14 12:22:00,
2013-03-14 08:27:00,25.5,14.7,29.88,WSW,257,4.0,19.0,63,0.00,,,0.00,49.0,meteohub,2013-03-14 12:27:00,
2013-03-14 08:32:00,25.5,14.7,29.89,West,277,6.0,26.0,63,0.00,,,0.00,62.0,meteohub,2013-03-14 12:32:00,
2013-03-14 08:37:00,25.3,14.5,29.89,WSW,248,2.0,26.0,63,0.00,,,0.00,67.0,meteohub,2013-03-14 12:37:00,
2013-03-14 08:42:00,25.3,14.5,29.89,NW,317,2.0,26.0,63,0.00,,,0.00,74.0,meteohub,2013-03-14 12:42:00,
2013-03-14 08:47:00,25.3,14.5,29.89,West,260,15.0,26.0,63,0.00,,,0.00,84.0,meteohub,2013-03-14 12:47:00,
2013-03-14 08:52:00,25.2,14.0,29.89,WNW,289,3.0,21.0,62,0.00,,,0.00,91.0,meteohub,2013-03-14 12:52:00,
2013-03-14 08:58:00,25.0,13.5,29.89,WSW,257,4.0,21.0,61,0.00,,,0.00,86.0,meteohub,2013-03-14 12:58:00,
2013-03-14 09:03:00,25.0,13.5,29.89,NW,304,9.0,21.0,61,0.00,,,0.00,86.0,meteohub,2013-03-14 13:03:00,
2013-03-14 09:08:00,24.8,13.3,29.89,NW,319,3.0,21.0,61,0.00,,,0.00,95.0,meteohub,2013-03-14 13:08:00,
2013-03-14 09:13:00,25.0,13.8,29.89,NW,309,8.0,18.0,62,0.00,,,0.00,123.0,meteohub,2013-03-14 13:13:00,
2013-03-14 09:19:00,25.0,13.5,29.89,West,281,5.0,18.0,61,0.00,,,0.00,120.0,meteohub,2013-03-14 13:19:00,
2013-03-14 09:24:00,25.0,13.5,29.89,NW,312,11.0,18.0,61,0.00,,,0.00,109.0,meteohub,2013-03-14 13:24:00,
2013-03-14 09:29:00,25.0,13.1,29.89,NNW,331,2.0,18.0,60,0.00,,,0.00,128.0,meteohub,2013-03-14 13:29:00,
2013-03-14 09:34:00,25.2,13.3,29.89,NW,304,7.0,18.0,60,0.00,,,0.00,135.0,meteohub,2013-03-14 13:34:00,
2013-03-14 09:39:00,25.2,13.3,29.89,WSW,240,3.0,21.0,60,0.00,,,0.00,165.0,meteohub,2013-03-14 13:39:00,
2013-03-14 09:45:00,25.2,13.3,29.89,NW,314,17.0,21.0,60,0.00,,,0.00,207.0,meteohub,2013-03-14 13:45:00,
2013-03-14 09:50:00,25.3,13.5,29.89,West,281,4.0,21.0,60,0.00,,,0.00,225.0,meteohub,2013-03-14 13:50:00,
2013-03-14 09:55:00,25.5,13.1,29.89,NW,325,11.0,18.0,59,0.00,,,0.00,239.0,meteohub,2013-03-14 13:55:00,
2013-03-14 10:00:00,25.7,13.8,29.89,NW,321,3.0,18.0,60,0.00,,,0.00,255.0,meteohub,2013-03-14 14:00:00,
2013-03-14 10:05:00,26.1,14.0,29.89,NW,305,7.0,18.0,60,0.00,,,0.00,207.0,meteohub,2013-03-14 14:05:00,
2013-03-14 10:11:00,26.1,14.5,29.90,SW,231,9.0,18.0,61,0.00,,,0.00,186.0,meteohub,2013-03-14 14:11:00,
2013-03-14 10:16:00,25.9,13.8,29.89,West,259,5.0,23.0,60,0.00,,,0.00,216.0,meteohub,2013-03-14 14:16:00,
2013-03-14 10:21:00,25.9,14.4,29.90,NNW,338,2.0,23.0,61,0.00,,,0.00,223.0,meteohub,2013-03-14 14:21:00,
2013-03-14 10:27:00,25.9,14.4,29.90,WNW,300,8.0,23.0,61,0.00,,,0.00,250.0,meteohub,2013-03-14 14:27:00,
2013-03-14 10:32:00,25.9,13.8,29.90,WNW,286,10.0,23.0,60,0.00,,,0.00,258.0,meteohub,2013-03-14 14:32:00,
2013-03-14 10:37:00,25.9,13.8,29.90,WNW,302,3.0,23.0,60,0.00,,,0.00,304.0,meteohub,2013-03-14 14:37:00,
2013-03-14 10:42:00,26.1,14.0,29.89,WNW,290,10.0,19.0,60,0.00,,,0.00,313.0,meteohub,2013-03-14 14:42:00,
2013-03-14 10:47:00,26.1,13.6,29.89,West,277,8.0,19.0,59,0.00,,,0.00,355.0,meteohub,2013-03-14 14:47:00,
2013-03-14 10:52:00,26.2,13.8,29.89,West,259,5.0,19.0,59,0.00,,,0.00,427.0,meteohub,2013-03-14 14:52:00,
2013-03-14 10:57:00,26.2,13.8,29.89,West,281,4.0,22.0,59,0.00,,,0.00,408.0,meteohub,2013-03-14 14:57:00,
2013-03-14 11:02:00,27.0,14.2,29.89,NW,319,13.0,28.0,58,0.00,,,0.00,276.0,meteohub,2013-03-14 15:02:00,
2013-03-14 11:07:00,26.8,13.1,29.90,WNW,290,10.0,28.0,56,0.00,,,0.00,255.0,meteohub,2013-03-14 15:07:00,
2013-03-14 11:12:00,26.8,13.1,29.90,NW,325,13.0,28.0,56,0.00,,,0.00,582.0,meteohub,2013-03-14 15:12:00,
2013-03-14 11:17:00,26.8,13.1,29.90,NW,316,10.0,22.0,56,0.00,,,0.00,167.0,meteohub,2013-03-14 15:17:00,
2013-03-14 11:22:00,26.6,13.1,29.90,WNW,294,4.0,22.0,56,0.00,,,0.00,206.0,meteohub,2013-03-14 15:22:00,
2013-03-14 11:27:00,26.4,13.6,29.90,NNW,344,5.0,22.0,58,0.00,,,0.00,292.0,meteohub,2013-03-14 15:27:00,
2013-03-14 11:32:00,27.0,14.5,29.90,SW,228,6.0,20.0,59,0.00,,,0.00,346.0,meteohub,2013-03-14 15:32:00,
2013-03-14 11:37:00,27.1,14.0,29.89,WSW,254,12.0,24.0,57,0.00,,,0.00,494.0,meteohub,2013-03-14 15:37:00,
2013-03-14 11:43:00,27.1,13.5,29.89,West,277,11.0,24.0,56,0.00,,,0.00,809.0,meteohub,2013-03-14 15:43:00,
2013-03-14 11:48:00,27.1,13.1,29.89,WNW,287,3.0,24.0,55,0.00,,,0.00,385.0,meteohub,2013-03-14 15:48:00,
2013-03-14 11:53:00,27.0,12.9,29.89,WNW,283,1.0,22.0,55,0.00,,,0.00,330.0,meteohub,2013-03-14 15:53:00,
2013-03-14 11:59:00,27.1,13.1,29.89,WNW,296,4.0,22.0,55,0.00,,,0.00,330.0,meteohub,2013-03-14 15:59:00,
2013-03-14 12:04:00,27.7,13.3,29.89,WNW,303,6.0,22.0,54,0.00,,,0.00,819.0,meteohub,2013-03-14 16:04:00,
2013-03-14 12:09:00,27.9,13.8,29.89,NNW,344,9.0,22.0,55,0.00,,,0.00,394.0,meteohub,2013-03-14 16:09:00,
2013-03-14 12:14:00,27.7,12.7,29.89,WSW,257,10.0,31.0,53,0.00,,,0.00,385.0,meteohub,2013-03-14 16:14:00,
2013-03-14 12:19:00,27.1,12.2,29.89,NW,320,12.0,31.0,53,0.00,,,0.00,392.0,meteohub,2013-03-14 16:19:00,
2013-03-14 12:25:00,27.0,12.6,29.90,SW,236,3.0,31.0,54,0.00,,,0.00,253.0,meteohub,2013-03-14 16:25:00,
2013-03-14 12:30:00,26.6,12.2,29.89,WNW,294,9.0,31.0,54,0.00,,,0.00,251.0,meteohub,2013-03-14 16:30:00,
2013-03-14 12:35:00,26.4,12.9,29.90,NE,38,11.0,31.0,56,0.00,,,0.00,281.0,meteohub,2013-03-14 16:35:00,
2013-03-14 12:41:00,26.1,12.0,29.90,WSW,256,11.0,18.0,55,0.00,,,0.00,243.0,meteohub,2013-03-14 16:41:00,
2013-03-14 12:46:00,25.9,11.5,29.90,North,10,9.0,19.0,54,0.00,,,0.00,239.0,meteohub,2013-03-14 16:46:00,
2013-03-14 12:52:00,25.3,10.9,29.90,NW,304,0.0,19.0,54,0.00,,,0.00,258.0,meteohub,2013-03-14 16:52:00,
2013-03-14 12:57:00,25.3,10.9,29.90,NW,308,13.0,19.0,54,0.00,,,0.00,274.0,meteohub,2013-03-14 16:57:00,
2013-03-14 13:02:00,25.2,10.4,29.89,NW,325,6.0,19.0,53,0.00,,,0.00,262.0,meteohub,2013-03-14 17:02:00,
2013-03-14 13:07:00,25.0,10.8,29.89,North,355,13.0,24.0,54,0.00,,,0.00,276.0,meteohub,2013-03-14 17:07:00,
2013-03-14 13:12:00,25.2,10.9,29.89,NNW,331,4.0,24.0,54,0.00,,,0.00,403.0,meteohub,2013-03-14 17:12:00,
2013-03-14 13:18:00,25.3,10.9,29.89,WSW,237,7.0,22.0,54,0.00,,,0.00,459.0,meteohub,2013-03-14 17:18:00,
2013-03-14 13:23:00,25.9,11.1,29.89,WNW,286,10.0,22.0,53,0.00,,,0.00,599.0,meteohub,2013-03-14 17:23:00,
2013-03-14 13:28:00,26.2,10.9,29.89,North,0,3.0,24.0,52,0.00,,,0.00,367.0,meteohub,2013-03-14 17:28:00,
2013-03-14 13:33:00,25.9,10.2,29.89,NW,319,10.0,24.0,51,0.00,,,0.00,332.0,meteohub,2013-03-14 17:33:00,
2013-03-14 13:38:00,25.5,9.9,29.90,WNW,298,7.0,28.0,51,0.00,,,0.00,378.0,meteohub,2013-03-14 17:38:00,
2013-03-14 13:44:00,25.5,10.4,29.89,NW,319,7.0,28.0,52,0.00,,,0.00,366.0,meteohub,2013-03-14 17:44:00,
2013-03-14 13:49:00,25.7,10.9,29.90,NNW,338,12.0,24.0,53,0.00,,,0.00,350.0,meteohub,2013-03-14 17:49:00,
2013-03-14 13:54:00,25.7,10.0,29.89,WNW,299,1.0,23.0,51,0.00,,,0.00,279.0,meteohub,2013-03-14 17:54:00,
2013-03-14 14:00:00,25.7,10.6,29.88,WNW,298,13.0,23.0,52,0.00,,,0.00,529.0,meteohub,2013-03-14 18:00:00,
2013-03-14 14:05:00,26.1,10.4,29.88,West,269,3.0,23.0,51,0.00,,,0.00,515.0,meteohub,2013-03-14 18:05:00,
2013-03-14 14:10:00,26.1,10.4,29.88,WSW,244,7.0,23.0,51,0.00,,,0.00,462.0,meteohub,2013-03-14 18:10:00,
2013-03-14 14:16:00,26.2,10.6,29.88,NW,315,13.0,20.0,51,0.00,,,0.00,396.0,meteohub,2013-03-14 18:16:00,
2013-03-14 14:21:00,26.4,11.7,29.87,West,277,18.0,20.0,53,0.00,,,0.00,499.0,meteohub,2013-03-14 18:21:00,
2013-03-14 14:26:00,26.6,11.8,29.87,WNW,294,13.0,27.0,53,0.00,,,0.00,334.0,meteohub,2013-03-14 18:26:00,
2013-03-14 14:31:00,27.1,12.7,29.87,WNW,296,3.0,27.0,54,0.00,,,0.00,680.0,meteohub,2013-03-14 18:31:00,
2013-03-14 14:36:00,27.9,12.9,29.87,West,266,4.0,22.0,53,0.00,,,0.00,617.0,meteohub,2013-03-14 18:36:00,
2013-03-14 14:42:00,27.9,12.0,29.87,West,273,7.0,22.0,51,0.00,,,0.00,752.0,meteohub,2013-03-14 18:42:00,
2013-03-14 14:47:00,27.7,11.8,29.87,NNW,332,3.0,26.0,51,0.00,,,0.00,316.0,meteohub,2013-03-14 18:47:00,
2013-03-14 14:53:00,27.7,12.7,29.87,WNW,292,9.0,26.0,53,0.00,,,0.00,278.0,meteohub,2013-03-14 18:53:00,
2013-03-14 14:58:00,27.5,12.2,29.87,North,9,8.0,26.0,52,0.00,,,0.00,265.0,meteohub,2013-03-14 18:58:00,
2013-03-14 15:03:00,27.1,11.8,29.87,NW,310,9.0,26.0,52,0.00,,,0.00,267.0,meteohub,2013-03-14 19:03:00,
2013-03-14 15:08:00,27.1,12.7,29.87,NNW,346,6.0,25.0,54,0.00,,,0.00,271.0,meteohub,2013-03-14 19:08:00,
2013-03-14 15:13:00,27.3,12.9,29.87,West,278,7.0,25.0,54,0.00,,,0.00,258.0,meteohub,2013-03-14 19:13:00,
2013-03-14 15:18:00,27.3,13.3,29.87,WNW,294,5.0,25.0,55,0.00,,,0.00,260.0,meteohub,2013-03-14 19:18:00,
2013-03-14 15:23:00,27.3,13.3,29.86,NW,322,8.0,25.0,55,0.00,,,0.00,183.0,meteohub,2013-03-14 19:23:00,
2013-03-14 15:29:00,27.5,13.8,29.86,West,271,6.0,17.0,56,0.00,,,0.00,225.0,meteohub,2013-03-14 19:29:00,
2013-03-14 15:34:00,27.7,14.0,29.86,WNW,302,5.0,23.0,56,0.00,,,0.00,209.0,meteohub,2013-03-14 19:34:00,
2013-03-14 15:39:00,27.7,14.0,29.86,West,275,12.0,23.0,56,0.00,,,0.00,179.0,meteohub,2013-03-14 19:39:00,
2013-03-14 15:44:00,27.7,14.4,29.86,NW,312,11.0,18.0,57,0.00,,,0.00,213.0,meteohub,2013-03-14 19:44:00,
2013-03-14 15:50:00,27.9,14.5,29.86,WNW,300,9.0,18.0,57,0.00,,,0.00,213.0,meteohub,2013-03-14 19:50:00,
2013-03-14 15:55:00,27.9,14.5,29.86,North,5,6.0,21.0,57,0.00,,,0.00,202.0,meteohub,2013-03-14 19:55:00,
2013-03-14 16:00:00,28.0,14.7,29.86,NW,317,6.0,21.0,57,0.00,,,0.00,255.0,meteohub,2013-03-14 20:00:00,
2013-03-14 16:06:00,28.4,16.0,29.85,WNW,303,8.0,23.0,59,0.00,,,0.00,258.0,meteohub,2013-03-14 20:06:00,
2013-03-14 16:11:00,28.8,15.8,29.85,NNW,336,10.0,23.0,58,0.00,,,0.00,311.0,meteohub,2013-03-14 20:11:00,
2013-03-14 16:17:00,28.8,15.8,29.86,WNW,284,2.0,24.0,58,0.00,,,0.00,316.0,meteohub,2013-03-14 20:17:00,
2013-03-14 16:22:00,29.1,16.2,29.86,WNW,290,15.0,24.0,58,0.00,,,0.00,209.0,meteohub,2013-03-14 20:22:00,
2013-03-14 16:27:00,29.1,16.2,29.86,WNW,293,2.0,24.0,58,0.00,,,0.00,218.0,meteohub,2013-03-14 20:27:00,
2013-03-14 16:33:00,28.9,16.3,29.86,WNW,287,2.0,24.0,59,0.00,,,0.00,127.0,meteohub,2013-03-14 20:33:00,
2013-03-14 16:38:00,28.9,16.9,29.86,NNW,339,4.0,19.0,60,0.00,,,0.00,77.0,meteohub,2013-03-14 20:38:00,
2013-03-14 16:43:00,28.9,17.2,29.86,WNW,297,3.0,19.0,61,0.00,,,0.00,97.0,meteohub,2013-03-14 20:43:00,
2013-03-14 16:48:00,28.8,17.1,29.87,NW,314,4.0,17.0,61,0.00,,,0.00,84.0,meteohub,2013-03-14 20:48:00,
2013-03-14 16:53:00,28.4,17.1,29.87,NNW,333,3.0,17.0,62,0.00,,,0.00,95.0,meteohub,2013-03-14 20:53:00,
2013-03-14 16:58:00,28.0,17.1,29.87,ENE,78,3.0,14.0,63,0.00,,,0.00,88.0,meteohub,2013-03-14 20:58:00,
2013-03-14 17:04:00,27.9,17.2,29.86,WNW,299,3.0,14.0,64,0.00,,,0.00,62.0,meteohub,2013-03-14 21:04:00,
2013-03-14 17:09:00,27.9,16.9,29.87,NNW,340,7.0,17.0,63,0.00,,,0.00,72.0,meteohub,2013-03-14 21:09:00,
2013-03-14 17:14:00,27.7,16.3,29.87,West,268,1.0,17.0,62,0.00,,,0.00,81.0,meteohub,2013-03-14 21:14:00,
2013-03-14 17:19:00,27.9,16.5,29.87,NNE,19,2.0,17.0,62,0.00,,,0.00,91.0,meteohub,2013-03-14 21:19:00,
2013-03-14 17:24:00,27.9,16.2,29.87,NNW,329,3.0,22.0,61,0.00,,,0.00,86.0,meteohub,2013-03-14 21:24:00,
2013-03-14 17:29:00,28.0,16.0,29.87,West,271,7.0,22.0,60,0.00,,,0.00,93.0,meteohub,2013-03-14 21:29:00,
2013-03-14 17:34:00,28.0,16.0,29.88,WNW,300,6.0,22.0,60,0.00,,,0.00,77.0,meteohub,2013-03-14 21:34:00,
2013-03-14 17:40:00,28.0,16.0,29.88,NW,309,2.0,22.0,60,0.00,,,0.00,65.0,meteohub,2013-03-14 21:40:00,
2013-03-14 17:45:00,28.2,16.2,29.88,WNW,286,3.0,17.0,60,0.00,,,0.00,62.0,meteohub,2013-03-14 21:45:00,
2013-03-14 17:50:00,28.2,15.8,29.88,SW,227,4.0,17.0,59,0.00,,,0.00,56.0,meteohub,2013-03-14 21:50:00,
2013-03-14 17:55:00,28.0,15.3,29.89,WNW,300,5.0,15.0,58,0.00,,,0.00,46.0,meteohub,2013-03-14 21:55:00,
2013-03-14 18:00:00,28.0,15.6,29.88,WNW,283,6.0,15.0,59,0.00,,,0.00,37.0,meteohub,2013-03-14 22:00:00,
2013-03-14 18:06:00,28.0,16.0,29.88,West,270,9.0,19.0,60,0.00,,,0.00,30.0,meteohub,2013-03-14 22:06:00,
2013-03-14 18:11:00,27.9,15.8,29.88,NW,304,6.0,19.0,60,0.00,,,0.00,25.0,meteohub,2013-03-14 22:11:00,
2013-03-14 18:16:00,27.9,16.5,29.88,WNW,286,6.0,20.0,62,0.00,,,0.00,19.0,meteohub,2013-03-14 22:16:00,
2013-03-14 18:22:00,27.7,16.7,29.89,NW,326,1.0,20.0,63,0.00,,,0.00,9.0,meteohub,2013-03-14 22:22:00,
2013-03-14 18:27:00,27.7,17.1,29.89,NNW,342,2.0,20.0,64,0.00,,,0.00,5.0,meteohub,2013-03-14 22:27:00,
2013-03-14 18:32:00,27.7,17.4,29.89,NW,308,2.0,18.0,65,0.00,,,0.00,5.0,meteohub,2013-03-14 22:32:00,
2013-03-14 18:37:00,27.5,18.0,29.89,NW,312,0.0,18.0,67,0.00,,,0.00,7.0,meteohub,2013-03-14 22:37:00,
2013-03-14 18:42:00,27.1,18.3,29.90,NW,315,3.0,18.0,69,0.00,,,0.00,5.0,meteohub,2013-03-14 22:42:00,
2013-03-14 18:47:00,27.1,18.7,29.90,NW,321,5.0,9.0,70,0.00,,,0.00,9.0,meteohub,2013-03-14 22:47:00,
2013-03-14 18:52:00,27.0,18.9,29.90,ENE,57,3.0,9.0,71,0.00,,,0.00,11.0,meteohub,2013-03-14 22:52:00,
2013-03-14 18:58:00,27.0,18.9,29.90,WNW,295,0.0,9.0,71,0.00,,,0.00,5.0,meteohub,2013-03-14 22:58:00,
2013-03-14 19:03:00,26.8,19.0,29.90,WSW,250,0.0,9.0,72,0.00,,,0.00,0.0,meteohub,2013-03-14 23:03:00,
2013-03-14 19:08:00,26.8,19.0,29.89,WSW,243,0.0,9.0,72,0.00,,,0.00,0.0,meteohub,2013-03-14 23:08:00,
2013-03-14 19:14:00,26.6,19.0,29.90,NE,53,1.0,9.0,73,0.00,,,0.00,0.0,meteohub,2013-03-14 23:14:00,
2013-03-14 19:19:00,26.6,19.0,29.90,West,268,0.0,9.0,73,0.00,,,0.00,0.0,meteohub,2013-03-14 23:19:00,
2013-03-14 19:24:00,26.6,19.0,29.90,West,268,0.0,3.0,73,0.00,,,0.00,0.0,meteohub,2013-03-14 23:24:00,
2013-03-14 19:29:00,26.6,19.0,29.90,WNW,296,0.0,3.0,73,0.00,,,0.00,0.0,meteohub,2013-03-14 23:29:00,
2013-03-14 19:35:00,26.6,19.0,29.90,NNE,29,1.0,6.0,73,0.00,,,0.00,0.0,meteohub,2013-03-14 23:35:00,
2013-03-14 19:40:00,26.6,18.9,29.90,NNE,22,4.0,6.0,72,0.00,,,0.00,0.0,meteohub,2013-03-14 23:40:00,
2013-03-14 19:45:00,26.8,18.7,29.90,NNE,30,10.0,10.0,71,0.00,,,0.00,0.0,meteohub,2013-03-14 23:45:00,
2013-03-14 19:50:00,27.0,18.1,29.90,NW,308,6.0,10.0,69,0.00,,,0.00,0.0,meteohub,2013-03-14 23:50:00,
2013-03-14 19:56:00,27.1,17.6,29.90,NW,310,0.0,13.0,67,0.00,,,0.00,0.0,meteohub,2013-03-14 23:56:00,
2013-03-14 20:01:00,27.3,17.4,29.90,WNW,287,6.0,13.0,66,0.00,,,0.00,0.0,meteohub,2013-03-15 00:01:00,
2013-03-14 20:07:00,27.5,17.2,29.90,WSW,244,0.0,13.0,65,0.00,,,0.00,0.0,meteohub,2013-03-15 00:07:00,
2013-03-14 20:12:00,27.5,17.2,29.90,West,270,3.0,13.0,65,0.00,,,0.00,0.0,meteohub,2013-03-15 00:12:00,
2013-03-14 20:17:00,27.7,17.1,29.90,NW,317,3.0,10.0,64,0.00,,,0.00,0.0,meteohub,2013-03-15 00:17:00,
2013-03-14 20:22:00,27.7,16.7,29.90,NW,304,1.0,10.0,63,0.00,,,0.00,0.0,meteohub,2013-03-15 00:22:00,
2013-03-14 20:27:00,27.7,16.7,29.90,WSW,238,0.0,10.0,63,0.00,,,0.00,0.0,meteohub,2013-03-15 00:27:00,
2013-03-14 20:32:00,27.7,16.3,29.90,NW,305,6.0,10.0,62,0.00,,,0.00,0.0,meteohub,2013-03-15 00:32:00,
2013-03-14 20:38:00,27.9,16.5,29.90,NW,305,7.0,10.0,62,0.00,,,0.00,0.0,meteohub,2013-03-15 00:38:00,
2013-03-14 20:43:00,27.9,16.2,29.90,SE,146,1.0,10.0,61,0.00,,,0.00,0.0,meteohub,2013-03-15 00:43:00,
2013-03-14 20:48:00,27.9,15.8,29.90,NW,323,10.0,10.0,60,0.00,,,0.00,0.0,meteohub,2013-03-15 00:48:00,
2013-03-14 20:53:00,27.9,15.8,29.90,NW,318,0.0,10.0,60,0.00,,,0.00,0.0,meteohub,2013-03-15 00:53:00,
2013-03-14 20:58:00,27.9,15.8,29.90,NW,322,4.0,10.0,60,0.00,,,0.00,0.0,meteohub,2013-03-15 00:58:00,
2013-03-14 21:04:00,27.9,15.4,29.90,North,5,2.0,10.0,59,0.00,,,0.00,0.0,meteohub,2013-03-15 01:04:00,
2013-03-14 21:09:00,28.0,15.6,29.90,NW,317,2.0,10.0,59,0.00,,,0.00,0.0,meteohub,2013-03-15 01:09:00,
2013-03-14 21:14:00,28.0,15.6,29.90,North,5,0.0,10.0,59,0.00,,,0.00,0.0,meteohub,2013-03-15 01:14:00,
2013-03-14 21:19:00,28.0,15.6,29.90,West,279,1.0,10.0,59,0.00,,,0.00,0.0,meteohub,2013-03-15 01:19:00,
2013-03-14 21:25:00,28.0,15.6,29.90,WNW,296,0.0,10.0,59,0.00,,,0.00,0.0,meteohub,2013-03-15 01:25:00,
2013-03-14 21:30:00,28.0,15.6,29.90,NW,323,0.0,12.0,59,0.00,,,0.00,0.0,meteohub,2013-03-15 01:30:00,
2013-03-14 21:35:00,28.0,15.6,29.91,NNE,21,0.0,12.0,59,0.00,,,0.00,0.0,meteohub,2013-03-15 01:35:00,
2013-03-14 21:40:00,28.0,15.6,29.91,WNW,294,4.0,12.0,59,0.00,,,0.00,0.0,meteohub,2013-03-15 01:40:00,
2013-03-14 21:45:00,28.0,15.3,29.91,WSW,254,3.0,15.0,58,0.00,,,0.00,0.0,meteohub,2013-03-15 01:45:00,
2013-03-14 21:50:00,28.0,15.6,29.90,WSW,242,0.0,15.0,59,0.00,,,0.00,0.0,meteohub,2013-03-15 01:50:00,
2013-03-14 21:56:00,27.9,15.4,29.91,NW,306,2.0,15.0,59,0.00,,,0.00,0.0,meteohub,2013-03-15 01:56:00,
2013-03-14 22:01:00,27.9,15.4,29.90,WSW,241,0.0,15.0,59,0.00,,,0.00,0.0,meteohub,2013-03-15 02:01:00,
2013-03-14 22:07:00,27.9,15.8,29.91,WNW,290,9.0,13.0,60,0.00,,,0.00,0.0,meteohub,2013-03-15 02:07:00,
2013-03-14 22:12:00,27.9,15.8,29.91,North,0,7.0,13.0,60,0.00,,,0.00,0.0,meteohub,2013-03-15 02:12:00,
2013-03-14 22:17:00,27.9,15.8,29.91,ENE,61,10.0,13.0,60,0.00,,,0.00,0.0,meteohub,2013-03-15 02:17:00,
2013-03-14 22:22:00,27.9,16.2,29.91,NW,306,2.0,13.0,61,0.00,,,0.00,0.0,meteohub,2013-03-15 02:22:00,
2013-03-14 22:27:00,27.9,16.5,29.91,NW,317,7.0,13.0,62,0.00,,,0.00,0.0,meteohub,2013-03-15 02:27:00,
2013-03-14 22:32:00,27.9,16.5,29.91,NW,325,7.0,13.0,62,0.00,,,0.00,0.0,meteohub,2013-03-15 02:32:00,
2013-03-14 22:37:00,27.9,16.5,29.91,NW,324,12.0,16.0,62,0.00,,,0.00,0.0,meteohub,2013-03-15 02:37:00,
2013-03-14 22:43:00,27.9,16.5,29.91,NW,324,1.0,16.0,62,0.00,,,0.00,0.0,meteohub,2013-03-15 02:43:00,
2013-03-14 22:48:00,28.0,17.1,29.91,NW,313,5.0,16.0,63,0.00,,,0.00,0.0,meteohub,2013-03-15 02:48:00,
2013-03-14 22:53:00,27.9,16.9,29.91,West,273,5.0,15.0,63,0.00,,,0.00,0.0,meteohub,2013-03-15 02:53:00,
2013-03-14 22:59:00,27.9,16.9,29.91,WSW,240,6.0,15.0,63,0.00,,,0.00,0.0,meteohub,2013-03-15 02:59:00,
2013-03-14 23:04:00,27.9,17.2,29.92,NNW,344,1.0,15.0,64,0.00,,,0.00,0.0,meteohub,2013-03-15 03:04:00,
2013-03-14 23:09:00,27.9,17.2,29.91,NNW,344,0.0,18.0,64,0.00,,,0.00,0.0,meteohub,2013-03-15 03:09:00,
2013-03-14 23:14:00,27.9,17.2,29.91,NW,305,4.0,18.0,64,0.00,,,0.00,0.0,meteohub,2013-03-15 03:14:00,
2013-03-14 23:20:00,27.9,17.6,29.91,NNW,346,0.0,18.0,65,0.00,,,0.00,0.0,meteohub,2013-03-15 03:20:00,
2013-03-14 23:25:00,27.7,17.4,29.92,North,5,2.0,17.0,65,0.00,,,0.00,0.0,meteohub,2013-03-15 03:25:00,
2013-03-14 23:30:00,27.7,17.4,29.92,WNW,294,0.0,17.0,65,0.00,,,0.00,0.0,meteohub,2013-03-15 03:30:00,
2013-03-14 23:36:00,27.7,17.4,29.92,ENE,62,7.0,17.0,65,0.00,,,0.00,0.0,meteohub,2013-03-15 03:36:00,
2013-03-14 23:42:00,27.7,17.4,29.92,NNW,338,3.0,17.0,65,0.00,,,0.00,0.0,meteohub,2013-03-15 03:42:00,
2013-03-14 23:47:00,27.7,17.1,29.92,WNW,285,2.0,13.0,64,0.00,,,0.00,0.0,meteohub,2013-03-15 03:47:00,
2013-03-14 23:52:00,27.7,17.1,29.91,WSW,255,0.0,13.0,64,0.00,,,0.00,0.0,meteohub,2013-03-15 03:52:00,
2013-03-14 23:57:00,27.5,17.2,29.91,WNW,284,2.0,13.0,65,0.00,,,0.00,0.0,meteohub,2013-03-15 03:57:00,